Wind_Speed
87 94 91 85 76 79 76 78 74 52 37 23 14 8 8 10 15 20 26 33 42 52 59 64 72 81 87 90 91 90 89 88 92 101 104 105 102 96 91 89 90 90 83 77
85 94 99 87 77 81 76 77 78 55 37 25 15 8 3 7 11 16 21 26 34 39 47 55 62 66 72 76 80 83 86 88 90 95 103 108 106 101 96 93 94 93 90 84
90 90 92 86 79 79 74 76 80 56 39 26 17 11 5 4 10 14 18 23 27 36 39 45 53 59 64 68 73 77 81 84 88 93 101 106 107 105 100 98 96 97 99 89
86 93 87 82 77 78 74 75 77 60 43 30 19 13 10 7 8 15 17 20 24 29 37 41 45 50 57 63 67 72 76 81 87 89 94 100 107 107 104 101 99 97 95 96
88 91 85 77 74 71 69 73 76 61 50 33 25 14 10 10 9 11 17 20 23 28 33 38 43 48 54 57 61 64 70 75 80 86 94 99 105 107 107 104 101 99 97 97
87 86 80 75 67 66 64 69 73 66 52 40 31 19 11 6 10 13 14 19 22 26 32 37 41 47 52 58 60 63 67 70 76 84 91 100 105 110 110 109 107 104 104 98
86 78 70 66 63 62 60 64 70 62 52 46 34 22 15 9 5 9 16 18 22 24 28 35 41 47 52 58 60 63 64 66 72 77 88 95 99 106 111 111 109 109 106 103
84 76 69 59 58 57 57 61 66 60 49 44 41 28 22 14 8 4 8 16 22 25 30 32 37 44 52 58 62 62 64 65 66 69 80 86 97 103 108 111 111 111 109 107
82 72 58 53 53 52 53 57 62 57 44 42 38 32 24 20 12 7 6 10 15 23 28 32 37 41 46 55 61 64 66 67 67 67 72 80 87 99 105 109 113 113 112 111
80 69 54 48 49 48 51 55 59 54 42 40 35 29 23 20 17 12 7 6 12 17 23 30 35 40 45 52 58 63 68 70 71 70 72 75 81 93 101 108 110 112 114 115
76 59 47 42 44 44 49 52 58 51 42 39 33 26 23 18 15 13 12 10 7 10 18 26 31 37 42 48 54 60 66 70 73 73 74 74 76 81 91 99 107 111 116 116
67 46 38 37 40 40 46 49 54 47 42 36 34 29 28 26 22 17 13 12 11 12 13 17 24 32 38 43 48 54 60 65 70 74 76 76 76 77 80 85 96 107 113 115
52 35 32 33 35 36 44 49 52 42 38 33 32 27 32 33 32 27 24 18 16 15 19 18 22 25 31 35 42 48 54 58 63 66 69 73 77 80 82 85 87 92 101 111
36 27 27 30 31 33 41 43 47 34 34 32 24 28 32 35 37 38 38 32 23 17 16 18 22 28 30 33 36 42 46 50 53 58 61 64 68 72 79 85 89 91 94 98
23 23 24 26 29 32 39 40 43 34 27 32 21 27 33 36 40 42 41 41 35 26 19 20 23 23 28 29 33 39 38 43 48 51 51 53 58 65 69 73 79 85 90 95
19 21 22 23 26 32 39 38 36 29 22 20 24 26 34 40 40 42 41 43 45 29 22 22 22 23 22 26 29 24 30 39 43 48 49 53 55 56 58 60 65 71 76 83
17 19 20 20 26 31 37 36 30 21 25 28 23 25 33 40 43 42 43 41 39 35 30 31 28 23 21 21 26 25 27 31 40 39 43 48 50 52 54 57 59 62 66 71
16 17 18 18 26 29 34 35 19 23 30 21 26 26 32 36 39 42 44 42 39 37 38 39 35 31 26 22 22 25 28 31 37 39 44 43 44 47 48 49 50 56 62 66
15 15 17 17 24 27 31 34 27 23 17 21 25 30 36 38 40 42 46 46 45 45 48 49 39 35 31 29 25 23 26 30 35 37 41 48 53 57 53 50 51 53 54 58
13 15 19 19 21 24 30 32 27 18 26 26 27 29 38 46 46 48 50 53 54 50 53 56 47 40 36 32 30 27 25 26 29 34 38 41 45 48 50 50 50 53 54 56
12 15 16 18 21 24 31 31 27 19 27 25 25 35 43 45 50 54 49 53 55 52 58 60 52 43 36 28 26 28 27 28 29 30 32 38 40 40 43 46 47 48 51 52
13 16 15 17 19 26 31 31 26 23 29 27 34 39 43 50 50 50 46 52 56 55 59 59 50 42 37 30 27 27 25 24 26 28 30 33 37 39 40 40 41 44 49 49
15 16 17 19 20 27 33 36 33 24 26 32 36 39 45 51 43 46 47 53 60 59 62 65 51 42 35 31 28 25 23 23 23 25 28 30 31 33 36 39 39 40 41 44
16 12 15 18 23 30 36 37 32 28 29 35 36 41 45 41 43 47 52 56 63 63 64 65 50 43 37 31 29 28 25 24 23 24 27 28 29 31 34 37 39 40 39 39
11 11 15 21 27 32 37 32 27 21 21 24 33 38 35 41 47 54 55 59 66 63 64 64 52 46 40 36 32 30 28 27 26 26 26 27 28 29 31 32 33 36 37 40
12 14 16 22 29 34 30 24 20 13 12 22 30 30 39 46 49 52 55 63 67 63 65 62 52 48 42 39 35 34 31 29 28 28 28 28 29 28 27 28 29 31 34 35
8 13 19 26 29 27 16 8 8 11 13 15 22 34 40 46 47 49 57 66 64 63 66 59 55 48 43 39 36 34 31 28 27 27 26 25 25 25 25 26 26 29 31 33
Wind_Direction
349 351 352 348 348 351 351 356 357 351 348 342 329 308 276 250 233 224 219 219 219 221 222 222 223 226 228 228 228 229 227 224 223 222 221 219 219 218 220 220 218 221 221 224
347 349 349 348 348 351 352 356 358 355 351 348 340 334 311 257 235 227 219 219 213 215 217 218 219 219 220 220 220 221 222 220 219 219 220 220 219 218 219 219 220 220 221 219
348 348 349 346 346 349 351 356 358 358 358 355 348 333 326 229 237 226 222 217 212 208 207 215 213 215 217 217 216 216 216 214 215 215 217 218 219 219 219 219 220 220 221 219
345 347 346 345 346 347 350 354 358 0 1 3 1 340 315 296 230 229 222 218 215 214 211 209 212 216 217 215 215 215 215 214 213 215 216 217 218 220 220 220 221 221 222 221
343 343 343 343 344 346 348 350 355 359 2 357 3 2 330 293 265 243 231 221 218 216 215 215 213 213 213 215 215 216 217 219 218 218 217 216 218 219 220 221 222 223 222 222
341 343 341 342 344 345 347 350 352 355 359 5 360 5 355 330 277 252 241 236 229 221 218 217 217 215 214 214 215 215 216 220 222 220 221 217 217 218 220 221 222 221 222 222
338 340 340 342 343 345 346 349 352 353 356 4 6 6 6 359 317 266 247 235 233 231 229 222 220 219 217 217 217 219 220 222 223 223 223 222 219 220 222 223 224 224 223 223
333 338 337 340 340 343 344 348 353 352 356 358 4 1 5 7 352 284 247 243 240 233 228 227 228 224 222 220 220 222 222 222 224 224 225 225 224 223 223 224 225 226 227 226
330 337 336 338 337 340 344 346 352 353 358 358 357 359 355 1 357 334 272 230 233 237 238 234 230 227 228 226 224 225 226 225 225 226 227 226 225 226 225 226 227 228 228 229
331 333 333 335 336 339 342 345 353 354 357 1 359 358 355 352 357 354 340 283 245 234 235 237 239 236 231 229 229 230 230 229 229 229 229 228 228 228 227 228 228 230 230 231
325 331 331 334 334 337 339 344 352 353 358 3 5 4 5 2 358 350 342 331 295 259 245 241 238 238 238 236 234 233 234 233 233 233 233 232 232 232 232 231 230 231 232 232
319 323 327 331 333 334 337 343 351 353 355 1 12 24 30 27 15 357 336 324 303 295 277 248 243 243 243 240 241 239 237 236 237 238 237 237 236 234 233 233 234 232 233 234
318 321 325 329 331 333 337 342 349 350 349 357 7 27 32 27 24 19 9 333 305 286 274 277 270 254 244 241 241 241 243 243 242 240 238 238 236 235 235 236 235 235 235 236
314 319 321 327 328 331 335 340 348 346 343 349 14 28 30 26 23 19 14 4 344 314 292 283 282 274 268 253 245 242 242 242 244 247 245 242 239 238 238 238 238 237 236 235
310 316 317 325 325 329 334 340 347 344 338 349 14 28 29 26 23 19 16 14 5 349 330 319 310 293 279 272 255 246 244 244 243 244 246 247 245 243 239 239 240 241 242 241
307 310 315 322 325 326 332 340 343 340 334 353 20 28 28 24 20 19 15 18 12 359 353 334 325 310 293 277 269 261 252 243 243 246 246 246 246 247 245 243 242 241 241 241
302 306 310 323 322 323 329 338 343 333 343 342 1 18 25 19 16 15 18 15 14 9 354 349 337 319 305 289 274 268 255 248 246 245 246 247 249 251 251 249 246 244 244 241
299 303 308 320 314 321 327 339 344 327 329 332 358 10 14 13 10 11 10 13 14 8 5 351 342 331 318 302 285 272 263 255 256 252 248 249 253 253 252 252 251 249 245 245
295 294 306 315 310 317 326 332 336 310 339 357 1 3 1 0 359 3 6 8 4 6 2 352 342 335 323 311 297 276 262 259 257 257 258 254 255 258 261 263 258 255 253 250
289 298 300 301 304 316 322 330 340 311 297 344 350 351 350 349 348 353 358 359 357 1 358 350 341 335 326 314 302 295 284 270 260 255 254 255 255 256 258 258 255 254 253 251
291 303 304 296 293 314 319 328 333 289 294 313 327 340 346 342 337 337 349 350 352 355 353 347 340 331 326 317 306 299 291 281 272 265 259 256 253 251 252 250 251 252 253 252
299 299 288 293 307 314 317 322 321 275 280 299 304 312 324 333 333 331 346 350 350 353 349 343 340 337 331 325 319 309 298 286 279 273 266 261 259 256 254 253 250 249 250 250
302 297 276 289 305 308 312 314 318 290 277 290 300 311 317 326 330 331 341 349 351 351 347 344 339 337 333 327 320 312 304 294 285 277 270 266 263 260 258 257 256 253 251 248
296 276 276 288 301 304 311 319 315 307 274 285 298 309 320 327 332 336 340 347 349 348 342 342 339 339 334 330 326 317 310 302 293 286 279 275 271 265 261 261 260 259 256 252
270 259 281 300 302 308 313 316 310 303 294 301 301 309 324 336 340 339 337 344 346 343 341 340 338 340 336 333 329 323 316 310 304 296 288 280 273 268 264 259 257 257 258 253
253 275 298 303 305 313 316 316 307 315 340 326 309 317 332 334 335 335 339 342 341 338 340 339 339 339 335 332 327 323 317 311 303 297 292 289 284 279 273 270 266 259 252 249
272 293 303 303 310 314 318 332 319 330 346 334 325 328 331 333 334 337 343 341 337 337 336 338 339 337 333 330 326 323 318 312 305 302 298 292 283 274 269 265 262 261 260 255
Height
10704 10689 10674 10658 10643 10629 10612 10595 10579 10564 10552 10546 10543 10541 10539 10540 10542 10545 10549 10555 10563 10570 10578 10587 10597 10609 10620 10633 10647 10660 10672 10687 10700 10715 10734 10748 10761 10780 10796 10809 10823 10826 10842 10856
10698 10681 10667 10652 10637 10623 10607 10594 10578 10562 10550 10542 10538 10538 10537 10536 10538 10540 10544 10548 10554 10560 10566 10575 10583 10593 10603 10615 10628 10640 10653 10666 10681 10693 10711 10725 10742 10760 10776 10789 10801 10814 10823 10840
10693 10677 10661 10647 10633 10619 10606 10591 10578 10561 10551 10542 10537 10534 10534 10535 10535 10537 10540 10544 10548 10552 10558 10567 10574 10583 10593 10604 10616 10626 10638 10649 10662 10675 10685 10708 10725 10741 10756 10767 10780 10792 10797 10825
10689 10674 10658 10646 10632 10617 10603 10591 10579 10564 10553 10544 10538 10533 10531 10531 10533 10535 10537 10540 10544 10548 10553 10559 10566 10576 10585 10594 10603 10615 10625 10636 10648 10661 10675 10689 10705 10721 10736 10747 10763 10775 10790 10801
10685 10671 10656 10643 10632 10617 10603 10591 10578 10566 10555 10545 10539 10533 10530 10529 10530 10532 10534 10536 10539 10543 10548 10553 10559 10567 10576 10587 10598 10609 10619 10629 10639 10649 10659 10671 10685 10700 10714 10729 10741 10757 10772 10785
10680 10666 10652 10639 10629 10618 10606 10593 10578 10565 10555 10547 10539 10532 10529 10527 10526 10528 10530 10534 10537 10539 10542 10547 10554 10561 10569 10577 10587 10596 10605 10614 10623 10631 10641 10651 10662 10676 10691 10707 10717 10733 10742 10768
10675 10661 10650 10638 10627 10616 10605 10593 10580 10567 10556 10549 10540 10534 10529 10526 10524 10524 10525 10527 10531 10535 10538 10542 10547 10553 10560 10567 10575 10584 10594 10601 10609 10620 10625 10635 10657 10663 10673 10686 10700 10711 10727 10740
10670 10658 10647 10636 10625 10616 10606 10596 10583 10569 10558 10548 10541 10535 10529 10526 10524 10522 10522 10523 10525 10527 10531 10535 10540 10545 10550 10557 10564 10571 10579 10587 10595 10603 10611 10628 10635 10645 10657 10666 10679 10692 10706 10719
10664 10652 10642 10632 10623 10615 10606 10596 10585 10572 10560 10550 10541 10536 10531 10527 10523 10521 10520 10519 10520 10522 10524 10527 10531 10535 10541 10547 10552 10558 10564 10572 10580 10587 10595 10603 10620 10623 10637 10646 10658 10671 10683 10695
10657 10644 10635 10627 10619 10611 10603 10594 10583 10572 10561 10552 10543 10536 10532 10527 10523 10521 10519 10518 10517 10517 10518 10520 10522 10526 10530 10534 10540 10545 10550 10556 10563 10570 10577 10586 10593 10601 10612 10623 10641 10646 10658 10669
10649 10637 10629 10622 10615 10608 10600 10591 10581 10571 10562 10553 10545 10538 10532 10528 10524 10521 10519 10516 10515 10515 10514 10514 10514 10515 10518 10522 10525 10530 10535 10541 10547 10555 10560 10570 10577 10586 10595 10606 10614 10622 10631 10642
10641 10630 10623 10618 10611 10604 10597 10588 10580 10570 10562 10554 10546 10539 10533 10529 10524 10521 10517 10514 10511 10508 10507 10507 10507 10507 10508 10510 10512 10515 10519 10524 10529 10536 10545 10553 10561 10567 10572 10579 10587 10597 10605 10614
10631 10624 10617 10612 10607 10601 10595 10585 10577 10569 10562 10555 10548 10540 10534 10529 10524 10520 10515 10511 10507 10503 10500 10498 10497 10497 10496 10497 10500 10501 10504 10507 10511 10517 10523 10531 10540 10547 10552 10556 10563 10572 10581 10589
10622 10617 10612 10607 10603 10598 10592 10584 10577 10570 10563 10557 10550 10542 10536 10530 10524 10518 10512 10506 10501 10497 10494 10491 10489 10485 10482 10484 10485 10486 10489 10492 10496 10498 10504 10511 10518 10526 10531 10536 10541 10546 10553 10560
10613 10610 10606 10603 10599 10595 10589 10582 10575 10568 10564 10557 10550 10543 10537 10531 10525 10519 10511 10503 10496 10491 10488 10485 10481 10476 10471 10469 10469 10471 10477 10479 10481 10483 10486 10491 10496 10501 10509 10514 10520 10526 10532 10537
10606 10603 10601 10598 10595 10590 10585 10578 10572 10567 10562 10556 10550 10544 10537 10531 10525 10519 10511 10503 10496 10490 10484 10478 10473 10467 10463 10460 10458 10461 10463 10465 10467 10469 10472 10474 10477 10480 10486 10493 10498 10501 10505 10511
10600 10597 10596 10593 10590 10586 10581 10575 10568 10565 10560 10555 10549 10543 10536 10530 10524 10518 10510 10502 10493 10486 10482 10476 10469 10463 10456 10452 10449 10449 10449 10451 10450 10455 10457 10458 10460 10464 10467 10471 10475 10479 10481 10485
10592 10591 10590 10588 10586 10582 10577 10570 10565 10563 10559 10553 10547 10541 10534 10528 10522 10516 10508 10499 10490 10482 10475 10470 10462 10456 10450 10445 10442 10438 10437 10438 10437 10440 10442 10443 10445 10446 10448 10451 10454 10457 10458 10459
10585 10585 10584 10583 10581 10578 10573 10567 10562 10560 10556 10549 10543 10538 10533 10526 10519 10511 10502 10494 10485 10476 10468 10463 10457 10450 10442 10437 10433 10431 10429 10427 10425 10425 10426 10427 10428 10429 10429 10430 10433 10435 10437 10437
10579 10579 10578 10578 10576 10573 10568 10563 10558 10554 10550 10544 10541 10536 10529 10523 10516 10507 10497 10488 10481 10470 10462 10456 10447 10440 10434 10427 10422 10419 10417 10416 10414 10413 10412 10411 10412 10412 10413 10414 10415 10414 10416 10416
10574 10573 10572 10572 10570 10567 10562 10557 10552 10548 10544 10540 10536 10532 10526 10519 10512 10504 10495 10485 10476 10465 10456 10449 10440 10430 10422 10417 10412 10408 10405 10402 10400 10399 10398 10397 10396 10396 10396 10397 10397 10398 10398 10398
10569 10568 10567 10566 10564 10561 10556 10550 10546 10542 10539 10534 10531 10528 10523 10517 10508 10500 10491 10480 10469 10456 10449 10441 10430 10421 10411 10405 10400 10396 10393 10390 10388 10387 10385 10382 10381 10381 10380 10380 10381 10382 10382 10383
10563 10562 10561 10560 10558 10555 10550 10545 10540 10535 10532 10529 10526 10521 10517 10512 10504 10494 10486 10475 10461 10449 10440 10430 10420 10413 10404 10396 10390 10386 10381 10378 10375 10373 10370 10367 10366 10365 10364 10363 10363 10365 10366 10368
10557 10556 10556 10554 10552 10548 10544 10539 10532 10528 10527 10524 10521 10518 10513 10506 10497 10487 10477 10465 10453 10441 10433 10423 10413 10403 10395 10388 10381 10376 10371 10367 10364 10362 10358 10356 10354 10352 10350 10348 10348 10349 10349 10351
10552 10551 10550 10549 10546 10542 10536 10531 10526 10522 10521 10519 10516 10513 10507 10499 10490 10480 10470 10456 10445 10435 10425 10414 10402 10393 10385 10378 10372 10366 10362 10357 10352 10349 10345 10342 10340 10338 10336 10335 10335 10334 10333 10334
10546 10546 10546 10543 10539 10535 10529 10524 10520 10518 10517 10514 10511 10507 10500 10491 10482 10473 10461 10448 10437 10428 10417 10405 10395 10384 10376 10369 10363 10357 10352 10346 10342 10337 10334 10331 10327 10325 10324 10322 10320 10318 10320 10320
10542 10541 10540 10537 10532 10527 10523 10519 10516 10514 10512 10510 10507 10502 10493 10483 10474 10465 10452 10441 10431 10419 10408 10397 10386 10377 10368 10361 10354 10348 10342 10337 10331 10326 10322 10318 10315 10313 10311 10310 10309 10307 10306 10306